Location: Beetenbrück
(52.8113°N, 9.5946°E)
Time: 22:29:38
(UTC+00:00)

COSMOS 2428 - Pass Details

Date: 14 April 2026
Orbit: 843 x 855 km, 70.9° (Epoch: 12 May)

Event Time Altitude Azimuth Distance (km) Brightness Sun altitude
Rises 20:36:43 0° 226° (SW) 3,416 5.9 -18.3°
Reaches altitude 10° 20:39:13 10° 230° (SW) 2,485 5.2 -18.6°
Maximum altitude 20:44:49 55° 308° (NW) 1,024 3.5 -19.1°
Drops below altitude 10° 20:50:28 10° 27° (NNE) 2,499 5.4 -19.7°
Sets 20:53:00 0° 32° (NNE) 3,438 6.1 -19.9°
